TimeICT,TemperatureF,Dew PointF,Humidity,Sea Level PressureIn,VisibilityMPH,Wind Direction,Wind SpeedMPH,Gust SpeedMPH,PrecipitationIn,Events,Conditions,WindDirDegrees,DateUTC
1:00 AM,77,76,95,29.83,4,Calm,Calm,,,,Mist,,2012-11-24 18:00:00
6:00 AM,77.0,77.0,100,29.80,2.5,Calm,Calm,-,N/A,,Scattered Clouds,0,2012-11-24 23:00:00
7:00 AM,76,75,97,29.83,3,Calm,Calm,,,,Mist,,2012-11-25 00:00:00
7:00 AM,77.0,77.0,100,29.83,4.3,WNW,3.5,-,N/A,,Mostly Cloudy,300,2012-11-25 00:00:00
8:00 AM,75.2,75.2,100,29.89,2.5,NE,5.8,-,N/A,Rain,Light Rain,40,2012-11-25 01:00:00
9:00 AM,77.0,77.0,100,29.92,3.1,NW,3.5,-,N/A,Rain,Light Rain,320,2012-11-25 02:00:00
10:00 AM,80.6,77.0,89,29.92,3.7,WNW,4.6,-,N/A,,Overcast,290,2012-11-25 03:00:00
11:00 AM,80.6,78.8,94,29.89,5.0,Calm,Calm,-,N/A,,Overcast,0,2012-11-25 04:00:00
1:00 PM,82,76,78,29.85,4,Calm,Calm,,,,Mist,,2012-11-25 06:00:00
1:00 PM,80.6,77.0,89,29.86,5.0,North,3.5,-,N/A,,Overcast,360,2012-11-25 06:00:00
2:00 PM,80.6,78.8,94,29.83,5.0,NNE,3.5,-,N/A,Rain,Light Rain,20,2012-11-25 07:00:00
3:00 PM,80.6,78.8,94,29.80,5.0,NNE,3.5,-,N/A,Rain,Light Rain,30,2012-11-25 08:00:00
4:00 PM,80.6,77.0,89,29.77,6.2,Calm,Calm,-,N/A,,Overcast,0,2012-11-25 09:00:00
5:00 PM,80.6,78.8,94,29.77,6.2,NNE,3.5,-,N/A,,Overcast,30,2012-11-25 10:00:00
6:00 PM,78.8,78.8,100,29.80,5.0,NNE,4.6,-,N/A,,Overcast,20,2012-11-25 11:00:00
7:00 PM,79,77,92,29.81,4,Calm,Calm,,,,Mist,,2012-11-25 12:00:00
7:00 PM,78.8,78.8,100,29.83,3.1,NE,6.9,-,N/A,,Overcast,40,2012-11-25 12:00:00
8:00 PM,77.0,77.0,100,29.86,3.1,North,4.6,-,N/A,,Overcast,10,2012-11-25 13:00:00
9:00 PM,77.0,77.0,100,29.86,3.1,North,4.6,-,N/A,,Mostly Cloudy,10,2012-11-25 14:00:00
10:00 PM,77.0,77.0,100,29.89,3.1,North,4.6,-,N/A,,Mostly Cloudy,10,2012-11-25 15:00:00
11:00 PM,77.0,77.0,100,29.89,3.1,NNW,4.6,-,N/A,,Scattered Clouds,340,2012-11-25 16:00:00